This demonstration page uses our WeatherBlox Daily Observations layout. Learn more.

Left ArrowRight Arrow

39.92423, -83.80882

Hourly Observations for February 18, 2022

Temp ( °F °C ) Dew Point ( °F °C ) Humidity (%) Winds ( mph kmh ) Pressure ( in mb ) Visibility ( mi km ) Precip ( " mm )
12:29 am 00:29 Cloudy 27 -3 27 -3 100 100 NNW 16 26 29.88 1012 10 16 0.00 0.00
12:56 am 00:56 Cloudy with Light Snow 27 -2.8 26 -3.3 96 96 NW 14 22 29.88 1012 9 14 0.00 0.00
1:05 am 01:05 Windy with Snow Likely 27 -3 27 -3 100 100 NW 22 35 29.93 1013 9 14 0.00 0.00
1:21 am 01:21 Cloudy with Light Snow 27 -3 25 -4 93 93 NW 17 28 29.96 1014 9 14 0.00 0.00
1:56 am 01:56 Cloudy 26 -3.3 25 -3.9 96 96 NW 15 24 29.95 1014 10 16 0.00 0.00
2:56 am 02:56 Cloudy with Light Snow 25 -3.9 23 -5 92 92 NW 15 24 29.98 1015 9 14 0.00 0.00
3:56 am 03:56 Cloudy with Light Snow 25 -3.9 23 -5 92 92 WNW 12 19 30.03 1017 9 14 0.00 0.00
4:56 am 04:56 Cloudy with Light Snow 24 -4.4 22 -5.6 91 91 NW 13 20 30.08 1019 8 13 0.00 0.00
5:56 am 05:56 Cloudy with Light Snow 23 -5 19 -7.2 85 85 NNW 9 15 30.12 1020 9 14 0.00 0.00
6:56 am 06:56 Cloudy with Light Snow 22 -5.6 20 -6.7 92 92 NW 18 30 30.17 1022 5 8 0.00 0.00
7:38 am 07:38 Mostly Cloudy 19 -7 14 -10 79 79 NW 18 30 30.24 1024 9 14 0.00 0.00
7:56 am 07:56 Cloudy 21 -6.1 15 -9.4 78 78 NNW 14 22 30.20 1023 10 16 0.00 0.00
8:56 am 08:56 Partly Cloudy 22 -5.6 16 -8.9 78 78 NW 10 17 30.24 1024 10 16 0.00 0.00
9:27 am 09:27 Mostly Cloudy 21 -6 16 -9 80 80 NW 13 20 30.28 1025 10 16 0.00 0.00
9:56 am 09:56 Mostly Cloudy 22 -5.6 16 -8.9 78 78 WNW 14 22 30.25 1025 10 16 0.00 0.00
10:56 am 10:56 Cloudy with Light Snow 24 -4.4 17 -8.3 75 75 NW 13 20 30.26 1025 9 14 0.00 0.00
11:56 am 11:56 Cloudy with Light Snow 24 -4.4 18 -7.8 77 77 NW 8 13 30.26 1025 9 14 0.00 0.00
12:56 pm 12:56 Partly Cloudy with Isolated Snow Showers 26 -3.3 19 -7.2 75 75 undefined N/A N/A 9 14 0.00 0.00
1:33 pm 13:33 Cloudy 28 -2 19 -7 69 69 W 15 24 30.24 1024 10 16 0.00 0.00
1:40 pm 13:40 Mostly Cloudy 27 -3 19 -7 74 74 W 13 20 30.25 1024 10 16 0.00 0.00
1:56 pm 13:56 Partly Cloudy 28 -2.2 19 -7.2 69 69 W 10 17 30.22 1023 10 16 0.00 0.00
2:56 pm 14:56 Partly Cloudy 28 -2.2 19 -7.2 69 69 W 16 26 30.22 1023 10 16 0.00 0.00
3:56 pm 15:56 undefined 28 -2.2 19 -7.2 69 69 SW 9 15 30.21 1023 10 16 0.00 0.00
4:56 pm 16:56 Sunny 29 -1.7 20 -6.7 69 69 WSW 10 17 30.19 1022 10 16 0.00 0.00
5:56 pm 17:56 Sunny 29 -1.7 20 -6.7 69 69 WSW 12 19 30.18 1022 10 16 0.00 0.00
6:56 pm 18:56 Clear 27 -2.8 20 -6.7 75 75 SW 9 15 30.17 1022 10 16 0.00 0.00
7:56 pm 19:56 Clear 27 -2.8 19 -7.2 72 72 SSW 8 13 30.15 1021 10 16 0.00 0.00
8:56 pm 20:56 Clear 27 -2.8 20 -6.7 75 75 SSW 10 17 30.13 1020 10 16 0.00 0.00
9:56 pm 21:56 Clear 28 -2.2 20 -6.7 72 72 SSW 15 24 30.11 1020 10 16 0.00 0.00
10:56 pm 22:56 Clear 28 -2.2 20 -6.7 72 72 SSW 20 31 30.07 1018 10 16 0.00 0.00
11:56 pm 23:56 Clear 28 -2.2 20 -6.7 72 72 SW 22 35 30.05 1018 10 16 0.00 0.00

Powered by AerisWeather